Flag for Germany Weather past 2 weeks in Regensburg, Bavaria, Germany

Now
62 °F

Overcast.


Feels Like: 62 °F
Forecast: 51 / 70 °F
Wind: 2 mph from North

Location: Regensburg

Current Time: Sep 2, 2014 at 11:57:56 AM

Latest Report: Sep 2, 2014 at 11:00 AM


Visibility: 9 mi

Pressure: 30.11 "Hg

Humidity: 77%

Dew point: 55 °F

Location of RegensburgLocation

Historic Weather in Regensburg — Graph

°F

Regensburg temperature yesterday

Maximum temperature yesterday: 60 °F (at 5:00 PM)
Minimum temperature yesterday: 52 °F (at 8:00 AM)
Average temperature yesterday: 55 °F

Past Weeks' High & Low Weather Summary

 TemperatureHumidityPressure
High75 °F (Aug 30, 2:00 PM)99% (Aug 28, 6:00 AM)30.16 "Hg (Aug 28, 6:00 AM)
Low41 °F (Aug 25, 6:00 AM)34% (Aug 21, 6:00 PM)29.69 "Hg (Aug 26, 6:00 PM)
Average59 °F75%29.99 "Hg
* Reported Aug 18 10:00 AM — Sep 2 10:00 AM, Regensburg, Weather by CustomWeather, © 2014

Note: Actual official high and low records may vary slightly from our data, if they occured in-between our weather recording intervals... More about our weather records

Advertising

Regensburg weather history for previous 24 hours

 ConditionsComfort  
Time TempWeatherWind HumidityBarometerVisibility
10:00 AM
Sep 2
60 °FOvercast.3 mph78%30.11 "Hg8 mi
9:00 AM57 °FOvercast.1 mph85%30.11 "Hg6 mi
8:00 AM53 °FOvercast.1 mph94%30.13 "Hg5 mi
7:00 AM52 °FFog.1 mph96%30.12 "Hg4 mi
6:00 AM52 °FOvercast.1 mph95%30.12 "Hg5 mi
5:00 AM52 °FOvercast.No wind97%30.12 "Hg6 mi
4:00 AM52 °FOvercast.No wind95%30.12 "Hg6 mi
3:00 AM52 °FOvercast.No wind94%30.13 "Hg9 mi
2:00 AM52 °FOvercast.No wind94%30.13 "Hg10 mi
1:00 AM52 °FOvercast.No wind94%30.14 "Hg11 mi
12:00 AM53 °FPassing clouds.1 mph90%30.14 "Hg12 mi
11:00 PM
Sep 1
55 °FOvercast.2 mph89%30.13 "Hg14 mi
10:00 PM55 °FOvercast.1 mph84%30.13 "Hg17 mi
9:00 PM56 °FOvercast.1 mph85%30.14 "Hg17 mi
8:00 PM56 °FOvercast.2 mph84%30.12 "Hg17 mi
7:00 PM57 °FOvercast.3 mph82%30.11 "Hg19 mi
6:00 PM58 °FOvercast.3 mph78%30.10 "Hg22 mi
5:00 PM60 °FOvercast.3 mph74%30.09 "Hg19 mi
4:00 PM57 °FOvercast.3 mph84%30.10 "Hg16 mi
3:00 PM60 °FOvercast.3 mph75%30.08 "Hg13 mi
2:00 PM60 °FOvercast.2 mph79%30.08 "Hg13 mi
1:00 PM60 °FOvercast.2 mph75%30.07 "Hg13 mi
12:00 PM59 °FOvercast.3 mph80%30.07 "Hg14 mi
11:00 AM57 °FOvercast.3 mph83%30.07 "Hg11 mi
Weather by CustomWeather, © 2014

See weather overviewHow to use our weather pages